Selinsgrove, PA

6:02 PM EDT on May 26, 2017 (GMT -0400)
Penn Valley

Weather History for KSEG - August, 2013

Change the Weather History Date:

Monday, August 19, 2013

  Actual Average (KIPT) Record (KIPT)
Temperature  
Mean Temperature 68 °F -  
Max Temperature 79 °F 79 °F 94 °F (1899)
Min Temperature 57 °F 59 °F 47 °F (1963)
Cooling Degree Days 3    
Growing Degree Days 18 (Base 50)    
Moisture  
Dew Point 61 °F    
Average Humidity 83    
Maximum Humidity 97    
Minimum Humidity 60    
Precipitation  
Precipitation 0.02 in - - ()
Sea Level Pressure  
Sea Level Pressure 30.12 in    
Wind  
Wind Speed 1 mph (South)    
Max Wind Speed 7 mph    
Max Gust Speed -    
Visibility 7 miles    
Events Rain    
Averages and records for this station are not official NWS values.
T = Trace of Precipitation, MM = Missing Value Source: NWS Daily Summary

Daily Weather History Graph

Daily Weather History Graph

Search for Another Location

Airport or City:

Trip Planner

Search our weather history database for the weather conditions in past years. The results will help you decide how hot, cold, wet, or windy it might be!

Date:

Astronomy

Aug. 19, 2013 Rise Set
Actual Time 6:21 AM EDT 7:59 PM EDT
Civil Twilight 5:52 AM EDT 8:28 PM EDT
Nautical Twilight 5:17 AM EDT 9:03 PM EDT
Astronomical Twilight 4:39 AM EDT 9:40 PM EDT
Moon 6:49 PM EDT (8/19) 4:38 AM EDT (8/19)
Length of Visible Light 14h 35m
Length of Day
13h 37m
Waxing Gibbous, 97% of the Moon is Illuminated
Aug 19
Waxing Gibbous
Aug 20
Full
Aug 28
Last Quarter
Sep 5
New
Sep 12
First Quarter

Hourly Weather History & Observations

Time (EDT) Temp. Dew Point Humidity Pressure Visibility Wind Dir Wind Speed Gust Speed Precip Events Conditions
12:53 AM 60.1 °F 57.9 °F 93% 30.17 in 6.0 mi Calm Calm - N/A   Overcast
1:53 AM 59.0 °F 57.0 °F 93% 30.17 in 6.0 mi Calm Calm - N/A   Clear
2:53 AM 59.0 °F 57.0 °F 93% 30.15 in 4.0 mi Calm Calm - N/A   Clear
3:53 AM 57.0 °F 55.9 °F 96% 30.15 in 4.0 mi Calm Calm - N/A   Clear
4:53 AM 57.9 °F 57.0 °F 97% 30.14 in 5.0 mi Calm Calm - N/A   Scattered Clouds
5:53 AM 59.0 °F 57.0 °F 93% 30.15 in 4.0 mi Calm Calm - N/A   Clear
6:53 AM 60.1 °F 57.9 °F 93% 30.14 in 4.0 mi Calm Calm - N/A   Mostly Cloudy
7:53 AM 61.0 °F 59.0 °F 93% 30.16 in 4.0 mi Calm Calm - N/A   Overcast
8:53 AM 63.0 °F 60.1 °F 90% 30.17 in 7.0 mi Calm Calm - 0.00 in   Overcast
9:53 AM 64.0 °F 61.0 °F 90% 30.15 in 4.0 mi Calm Calm - 0.02 in Rain Light Rain
10:53 AM 66.9 °F 62.1 °F 84% 30.14 in 9.0 mi NW 4.6 mph - 0.00 in   Mostly Cloudy
11:47 AM 68.0 °F 62.6 °F 83% 30.14 in 9.0 mi Calm Calm - N/A   Mostly Cloudy
11:53 AM 68.0 °F 62.1 °F 81% 30.14 in 10.0 mi Variable 3.5 mph - N/A   Mostly Cloudy
12:01 PM 68.0 °F 62.6 °F 83% 30.14 in 9.0 mi Calm Calm - N/A   Overcast
12:14 PM 69.8 °F 62.6 °F 78% 30.13 in 10.0 mi Calm Calm - N/A   Overcast
12:22 PM 69.8 °F 60.8 °F 73% 30.13 in 10.0 mi Calm Calm - N/A   Overcast
12:53 PM 70.0 °F 61.0 °F 73% 30.12 in 10.0 mi Calm Calm - N/A   Overcast
1:53 PM 72.0 °F 63.0 °F 73% 30.12 in 10.0 mi Calm Calm - N/A   Overcast
2:53 PM 75.9 °F 63.0 °F 64% 30.09 in 10.0 mi SSE 3.5 mph - N/A   Overcast
3:53 PM 78.1 °F 63.0 °F 60% 30.08 in 10.0 mi Calm Calm - N/A   Scattered Clouds
4:53 PM 79.0 °F 64.0 °F 60% 30.07 in 10.0 mi Variable 5.8 mph - N/A   Mostly Cloudy
5:53 PM 78.1 °F 64.0 °F 62% 30.06 in 10.0 mi Calm Calm - N/A   Clear
6:53 PM 75.0 °F 64.0 °F 69% 30.06 in 10.0 mi South 6.9 mph - N/A   Partly Cloudy
7:53 PM 71.1 °F 64.9 °F 81% 30.06 in 10.0 mi South 3.5 mph - N/A   Clear
8:53 PM 66.0 °F 64.0 °F 93% 30.07 in 8.0 mi Calm Calm - N/A   Mostly Cloudy
9:53 PM 64.0 °F 62.1 °F 93% 30.09 in 7.0 mi Calm Calm - N/A   Partly Cloudy
10:53 PM 63.0 °F 62.1 °F 97% 30.10 in 4.0 mi Calm Calm - N/A   Clear
11:53 PM 62.1 °F 60.1 °F 93% 30.10 in 4.0 mi Calm Calm - N/A   Clear